Temperature
20 18 18 18 19 20 20 20 20 20 20 20 19 19 19 19 19 19 19 19 19 20 20 20 20 20 20 19 19 19 19 19 18 18 18 18 18 18 18 17 17 17 17 17
18 19 19 19 19 20 20 20 19 20 20 20 19 19 19 19 19 19 19 19 19 19 19 20 20 19 20 19 19 19 19 19 18 18 18 18 18 18 18 17 17 17 17 17
20 20 20 20 20 20 20 19 20 20 20 20 20 19 19 18 19 19 19 19 19 19 20 20 20 20 19 19 19 19 19 19 19 18 18 18 18 18 18 18 17 17 17 17
20 20 21 21 21 20 19 20 20 20 19 18 19 18 18 18 17 18 18 18 18 19 19 20 20 20 19 19 19 19 19 19 19 18 18 18 18 18 18 17 17 17 17 17
20 20 21 21 21 21 20 20 20 19 19 18 18 18 17 17 18 18 17 18 19 19 19 19 20 20 20 19 19 19 19 19 19 18 18 18 18 18 17 17 17 17 17 17
20 21 21 21 21 21 20 19 18 16 16 18 18 17 17 17 18 18 17 18 19 19 19 19 19 19 19 19 18 18 18 18 18 18 18 18 18 17 17 17 17 17 16 16
20 21 21 21 21 20 19 18 17 18 16 17 17 17 17 18 17 17 17 18 18 19 19 19 19 19 18 18 18 18 18 18 18 18 18 18 18 17 17 17 17 17 17 16
19 19 20 21 21 19 19 18 18 18 17 17 17 17 17 17 17 18 18 18 18 18 19 19 19 19 19 18 18 18 18 18 18 18 18 18 17 17 17 17 17 17 16 16
18 19 20 21 21 20 19 17 17 16 17 17 17 17 17 17 17 17 17 17 17 18 18 19 19 19 19 19 18 18 18 18 17 17 17 17 17 17 17 17 16 16 16 16
18 19 20 20 20 19 18 17 15 16 17 17 18 18 17 17 17 16 16 16 17 17 17 18 18 18 18 18 18 18 17 17 17 17 17 17 17 17 16 16 16 16 16 16
18 18 19 19 19 18 17 17 15 14 15 16 17 17 18 17 17 16 16 16 16 17 17 17 17 17 18 18 18 17 17 17 17 17 17 16 16 16 16 16 16 16 16 15
16 15 17 18 19 19 18 17 15 16 16 15 16 17 18 16 16 16 16 16 16 17 17 17 17 17 17 17 17 17 17 17 16 16 16 16 16 16 16 16 16 16 15 15
16 15 16 17 18 18 18 17 16 15 14 14 15 17 17 16 15 16 16 16 16 16 16 16 16 16 16 16 16 17 16 16 16 16 15 15 15 15 15 15 15 15 15 15
16 14 16 17 17 17 18 18 16 15 15 15 15 16 16 15 15 15 15 16 16 16 16 16 16 16 16 16 16 16 16 16 15 15 15 15 15 15 15 15 15 15 15 15
15 15 16 16 17 17 17 17 17 16 16 16 16 16 16 15 15 15 15 15 15 15 15 15 16 16 16 15 15 16 15 15 15 15 15 15 14 14 15 15 15 14 14 14
13 15 16 16 17 17 17 17 17 17 16 16 16 16 15 15 15 15 15 15 14 15 15 15 15 15 15 15 15 15 15 15 14 14 14 14 14 14 14 14 14 14 14 14
12 14 14 15 16 16 16 16 16 16 16 16 16 15 14 14 14 14 14 14 15 15 15 15 15 15 15 15 15 14 14 14 14 14 14 14 13 14 14 14 14 14 14 13
12 12 12 13 15 15 15 15 16 15 15 14 14 14 14 13 14 14 15 15 15 15 15 15 15 15 15 15 14 14 14 14 14 13 13 13 13 13 13 13 13 13 13 13
11 12 11 12 13 14 15 15 15 15 14 14 14 13 13 14 14 14 14 14 15 15 15 15 15 15 14 14 14 14 13 13 13 13 13 13 13 13 12 12 13 13 13 13
11 11 11 12 14 14 14 15 15 15 14 13 13 13 13 13 13 13 14 14 14 15 15 15 14 14 14 14 14 13 13 13 13 12 12 12 12 12 12 12 12 12 12 12
12 11 11 12 12 13 13 14 15 15 14 14 13 13 13 12 13 14 14 14 14 14 14 14 14 14 14 13 13 13 13 13 12 12 12 12 12 12 12 12 12 12 12 12
11 11 11 11 12 13 13 13 13 13 13 14 13 13 13 13 13 13 13 13 14 14 14 13 13 13 13 13 13 13 12 12 12 12 11 11 11 11 12 12 11 11 11 11
10 10 10 10 11 11 12 12 13 13 13 13 13 13 13 13 13 13 13 13 13 13 13 13 13 13 13 12 12 12 12 12 11 11 11 11 11 11 11 11 11 11 11 11
10 9 9 10 10 11 12 12 13 13 13 13 13 13 13 13 12 12 12 12 12 12 12 12 12 12 12 12 12 12 12 12 11 11 11 11 11 11 10 10 11 11 11 11
9 9 9 9 10 11 11 12 12 12 12 13 13 13 13 12 12 12 12 12 12 12 12 12 11 11 11 11 11 11 11 11 11 10 10 10 10 10 10 10 10 10 10 10
8 9 9 9 10 10 11 11 12 12 12 12 12 12 12 12 12 11 11 11 11 11 11 11 11 11 11 11 11 11 11 10 10 10 10 10 10 10 10 10 10 10 10 10
Wind_Speed
3 4 4 7 8 6 4 3 3 4 2 1 3 4 5 3 3 4 4 5 5 6 4 4 5 6 6 6 5 6 6 5 5 4 4 3 3 2 1 2 4 5 5 6
4 4 7 5 4 4 3 2 3 4 1 2 2 4 4 3 4 5 6 6 6 5 3 3 4 5 6 7 6 6 6 5 6 5 4 3 3 2 2 1 2 4 5 5
7 5 4 4 3 4 4 5 5 4 2 2 0 4 3 3 2 2 4 4 4 7 6 5 5 6 6 7 7 7 6 6 5 5 3 3 3 2 1 1 1 1 3 4
5 4 3 4 4 6 5 6 5 3 0 3 1 3 6 3 4 3 3 3 4 5 6 6 6 6 7 7 7 6 6 6 5 5 5 5 4 3 2 2 1 1 2 3
5 4 4 5 6 7 5 2 4 2 2 1 1 2 7 3 4 6 5 6 6 6 7 7 7 8 7 6 6 5 5 5 5 5 5 5 3 2 1 1 2 1 1 2
5 3 5 5 2 5 4 5 5 5 4 2 4 4 6 4 6 5 5 6 5 5 6 6 5 5 5 5 5 5 6 5 5 5 5 5 5 4 3 2 2 1 1 1
4 3 3 3 2 2 4 5 3 3 2 6 2 3 7 6 4 5 5 6 5 4 5 6 6 6 6 6 6 5 6 5 5 5 5 5 5 5 4 3 3 3 2 1
3 5 4 4 6 6 5 8 7 5 5 5 1 5 6 4 3 2 3 3 3 4 4 6 7 7 7 7 6 6 6 4 4 4 4 4 4 4 3 4 3 3 3 2
5 5 3 2 2 8 6 4 5 6 2 2 5 5 5 1 2 0 2 2 3 4 4 5 5 6 6 6 6 6 5 4 4 4 4 3 4 4 3 3 3 2 2 2
7 4 4 1 3 3 5 7 5 5 4 3 5 4 4 4 3 2 2 3 3 3 4 4 5 5 5 4 4 4 5 4 4 4 3 3 3 3 3 3 3 3 2 2
4 4 3 1 3 4 3 4 4 4 4 5 3 6 4 6 6 5 5 4 4 4 5 4 3 4 4 4 4 4 4 4 3 3 3 3 3 3 2 2 3 2 2 2
3 4 2 4 4 3 5 6 6 5 4 4 4 6 4 3 4 4 4 4 3 3 4 5 4 4 4 4 3 3 3 3 2 2 3 2 2 3 3 2 2 2 2 2
4 5 1 4 3 2 2 3 4 5 4 4 4 6 3 2 1 2 4 4 4 4 4 4 4 4 4 3 3 2 2 1 2 2 2 2 2 3 3 3 2 2 2 2
4 4 6 7 6 3 2 2 4 5 4 5 6 6 5 3 1 1 3 4 4 4 5 5 4 4 4 3 3 2 2 1 2 2 2 2 2 3 3 2 2 2 2 2
4 3 4 4 4 3 3 4 5 6 7 7 7 6 7 5 4 3 3 4 5 4 4 4 4 3 3 3 2 2 2 2 1 1 1 2 2 2 2 2 1 1 1 2
2 3 2 1 1 1 1 3 4 4 4 5 4 5 5 3 2 2 4 6 5 5 5 4 4 3 3 3 3 2 1 1 1 1 1 0 0 0 1 1 1 1 1 0
1 4 3 3 2 1 3 5 4 3 3 5 6 6 2 1 3 4 4 5 6 5 5 5 4 4 4 3 3 3 2 1 1 1 1 1 1 0 0 1 1 1 1 1
5 4 3 2 2 5 6 2 3 3 1 2 3 3 3 3 2 1 2 4 4 4 4 4 4 4 3 3 3 2 2 3 2 1 1 1 0 0 0 0 1 1 2 2
5 6 4 3 3 4 4 2 2 3 3 2 3 2 1 2 3 1 1 2 3 4 4 4 4 4 4 4 4 4 3 3 2 1 1 1 1 1 1 2 2 2 2 2
4 4 4 3 4 5 5 4 2 3 3 3 3 3 2 3 2 4 2 1 1 2 2 2 3 3 4 3 4 4 2 2 1 1 2 2 2 2 3 3 3 2 2 2
2 2 3 4 4 5 4 4 1 4 5 2 3 4 4 4 4 2 0 1 1 2 2 3 3 3 3 3 4 3 3 2 2 1 1 1 2 2 3 2 2 2 2 1
4 4 4 4 3 6 3 1 4 5 2 1 2 3 3 2 1 2 2 2 2 2 2 3 3 2 2 3 4 3 3 3 2 1 1 2 2 2 1 1 2 1 1 1
3 5 4 5 5 4 2 2 3 2 2 1 2 2 3 2 1 2 2 2 2 2 2 2 2 2 1 2 3 3 3 2 2 1 1 2 2 2 2 1 1 1 1 1
1 0 1 2 4 4 3 2 2 1 2 2 2 3 4 3 3 2 2 2 2 1 2 2 3 2 0 1 1 2 2 1 2 1 1 2 2 2 2 1 1 1 2 2
2 1 0 2 4 4 4 3 1 1 1 1 1 2 4 5 4 3 2 2 1 1 1 2 2 2 1 1 1 1 1 1 2 1 1 1 1 1 1 1 2 2 3 4
2 3 3 5 5 4 5 4 2 0 0 1 2 2 2 3 4 4 3 2 2 2 1 1 2 1 1 1 1 2 1 2 2 1 1 1 1 2 1 2 3 3 3 4
Wind_Direction
102 96 195 208 196 189 170 175 243 262 244 169 235 257 267 257 209 208 205 201 203 215 208 177 173 167 161 161 164 173 166 170 163 159 165 168 188 187 184 203 202 195 188 180
61 239 222 189 179 172 173 202 255 288 305 174 240 279 271 231 225 214 209 210 208 211 190 183 173 169 169 171 174 174 172 173 178 178 172 167 160 163 170 182 183 186 183 179
189 229 178 158 162 168 208 199 214 235 329 16 209 313 296 284 270 229 210 215 211 202 196 196 187 188 174 176 181 182 178 178 182 169 143 117 89 74 88 118 170 194 185 184
221 237 177 177 198 174 239 222 194 195 112 286 145 278 284 284 294 269 237 211 212 203 192 191 188 189 187 186 178 177 171 168 165 157 156 153 158 173 196 186 185 167 171 175
230 198 177 203 213 173 211 181 155 168 168 301 327 192 283 294 273 265 247 222 214 204 192 191 191 190 187 174 167 167 156 160 156 156 161 161 166 175 159 144 149 151 188 179
238 219 196 201 189 162 147 76 65 61 84 268 240 184 272 240 234 248 244 233 217 204 194 189 188 173 163 154 155 152 152 160 159 160 164 169 174 174 162 171 184 192 187 177
297 274 233 164 119 87 108 96 40 2 0 249 224 195 249 254 242 227 230 233 217 196 187 177 170 167 161 161 167 160 158 168 168 167 174 178 178 176 184 188 192 191 183 195
221 276 232 187 177 178 178 151 164 197 222 268 254 229 254 268 262 231 212 210 189 173 176 180 180 173 168 170 167 163 168 174 167 168 174 176 172 177 191 188 181 189 198 206
189 252 281 211 162 146 151 176 168 142 164 251 268 275 296 313 342 83 154 156 182 176 167 177 171 167 167 167 166 165 165 169 163 165 163 166 172 180 186 181 175 182 187 187
167 229 285 270 75 46 138 144 108 132 160 242 276 265 259 256 248 231 194 187 181 157 143 149 158 162 163 160 150 146 153 165 161 158 167 173 172 185 182 167 176 180 182 172
144 174 301 47 172 192 109 114 119 133 161 168 248 272 248 225 215 203 206 192 171 158 150 140 142 149 140 131 132 135 144 145 159 170 165 163 173 170 168 170 184 185 180 178
145 137 231 261 261 185 155 164 152 160 213 182 184 264 299 242 211 189 187 180 168 152 138 131 123 103 97 108 123 132 142 152 167 164 159 174 177 161 167 186 191 179 181 189
132 118 93 335 334 9 138 158 156 137 132 161 181 257 327 17 102 163 166 163 159 140 127 119 115 111 100 93 91 97 104 131 142 148 155 163 167 174 180 191 192 178 172 176
121 126 171 202 217 206 211 191 159 139 162 196 218 246 294 316 286 211 175 163 149 140 134 128 127 120 111 100 96 95 86 88 131 148 162 184 200 195 183 170 169 171 167 167
111 161 204 229 233 196 221 224 194 188 187 191 223 229 258 254 230 217 180 155 141 138 140 145 145 135 123 116 98 83 64 49 86 131 158 212 223 198 153 148 164 171 178 182
95 161 178 269 239 184 266 274 225 221 201 204 216 254 260 239 210 168 165 157 159 162 160 160 150 140 145 143 136 124 97 41 84 110 122 260 169 131 139 154 158 157 163 178
125 136 140 239 275 11 266 256 222 215 221 194 212 236 227 179 191 187 178 174 176 176 167 166 169 166 168 171 160 161 153 143 145 129 93 63 80 135 219 180 164 183 204 212
152 136 141 165 137 221 242 272 189 181 234 217 221 234 197 188 185 176 176 176 178 182 174 167 165 162 159 151 147 142 127 124 124 108 94 64 48 311 306 215 225 221 214 221
162 147 133 140 187 258 287 273 193 185 253 256 223 224 158 119 78 354 278 182 184 185 175 172 173 168 155 153 150 128 118 117 113 147 228 247 231 237 241 242 243 236 223 237
85 112 129 149 180 226 244 269 247 138 263 260 209 198 186 130 158 259 273 135 137 144 129 127 129 134 141 152 137 127 133 139 178 241 265 263 238 223 233 238 241 232 217 234
76 90 152 183 213 254 266 290 112 171 239 257 203 201 179 181 210 239 135 104 122 112 102 107 112 127 149 149 139 143 161 208 240 246 260 277 270 253 245 234 231 226 228 231
170 160 182 169 200 250 297 113 173 216 240 195 197 185 163 154 144 115 118 120 106 89 82 91 103 111 117 139 146 160 201 217 219 226 267 283 292 283 281 226 237 228 198 211
185 189 188 191 213 254 286 229 254 214 212 229 189 180 152 142 142 123 127 124 111 101 97 90 110 107 96 149 159 182 228 209 198 189 280 299 300 307 298 261 241 228 204 214
294 81 149 247 274 286 297 315 310 272 235 230 180 162 151 156 157 145 137 125 115 94 104 93 110 116 219 274 166 201 231 194 161 180 295 317 311 315 315 297 263 228 230 236
236 124 94 268 279 315 319 308 297 359 40 75 110 160 164 153 150 149 146 149 150 116 77 105 133 161 214 255 265 245 215 158 153 171 248 294 303 290 307 300 269 255 242 227
225 194 195 233 239 225 266 293 298 43 261 172 139 128 153 154 153 146 151 159 155 159 147 145 161 179 246 261 266 266 220 174 173 194 237 254 291 295 290 304 312 287 258 258
Height
1488 1494 1499 1497 1495 1496 1499 1503 1505 1500 1494 1497 1499 1498 1494 1493 1493 1493 1493 1494 1495 1496 1498 1500 1502 1504 1507 1509 1512 1514 1517 1519 1521 1523 1524 1526 1528 1530 1532 1533 1534 1535 1536 1537
1493 1495 1490 1489 1492 1495 1498 1503 1504 1499 1494 1496 1499 1498 1493 1492 1491 1491 1492 1492 1493 1494 1497 1498 1500 1502 1504 1507 1509 1512 1515 1517 1519 1521 1523 1525 1527 1529 1530 1532 1533 1533 1534 1535
1491 1488 1485 1488 1492 1496 1498 1501 1501 1501 1497 1496 1499 1501 1495 1491 1490 1489 1490 1490 1491 1492 1494 1496 1498 1500 1502 1504 1507 1510 1513 1515 1517 1519 1522 1524 1526 1527 1528 1530 1531 1532 1533 1534
1486 1483 1484 1487 1490 1492 1499 1491 1493 1497 1504 1509 1503 1515 1499 1493 1491 1488 1488 1488 1488 1490 1491 1494 1496 1498 1500 1502 1505 1508 1510 1513 1515 1517 1520 1521 1523 1525 1526 1528 1529 1530 1531 1532
1484 1481 1482 1485 1484 1486 1490 1487 1491 1496 1503 1509 1507 1514 1506 1495 1493 1488 1486 1485 1485 1487 1489 1491 1493 1495 1498 1500 1503 1506 1509 1511 1513 1515 1518 1520 1522 1524 1525 1527 1528 1529 1530 1531
1479 1477 1477 1479 1478 1481 1484 1490 1496 1503 1510 1519 1508 1514 1509 1497 1489 1485 1483 1483 1483 1485 1487 1489 1491 1494 1496 1499 1502 1504 1507 1509 1512 1514 1516 1518 1520 1522 1523 1524 1526 1527 1528 1529
1482 1478 1475 1475 1480 1483 1486 1501 1517 1519 1525 1520 1506 1508 1503 1486 1482 1481 1481 1481 1481 1482 1484 1486 1489 1492 1494 1497 1500 1502 1505 1507 1510 1512 1514 1516 1517 1519 1521 1522 1524 1525 1526 1527
1490 1489 1475 1473 1476 1484 1488 1495 1514 1523 1525 1517 1506 1506 1493 1482 1479 1478 1479 1479 1479 1481 1482 1484 1487 1490 1492 1495 1497 1500 1503 1505 1508 1510 1512 1514 1516 1517 1519 1520 1522 1523 1524 1525
1489 1487 1472 1470 1471 1476 1487 1493 1493 1508 1512 1517 1511 1499 1487 1479 1478 1477 1478 1478 1478 1480 1481 1484 1486 1489 1491 1493 1496 1499 1501 1504 1506 1508 1510 1512 1514 1515 1517 1518 1520 1521 1522 1523
1479 1486 1476 1472 1472 1475 1479 1486 1500 1509 1518 1520 1509 1501 1495 1483 1479 1478 1478 1477 1478 1479 1481 1483 1486 1488 1490 1493 1495 1498 1500 1502 1504 1506 1508 1510 1512 1514 1515 1516 1517 1519 1520 1521
1476 1485 1482 1477 1479 1482 1484 1489 1496 1505 1507 1515 1516 1504 1480 1478 1476 1476 1476 1476 1477 1479 1480 1483 1485 1487 1489 1492 1494 1497 1499 1501 1503 1505 1506 1508 1510 1511 1513 1514 1515 1517 1518 1519
1476 1484 1489 1481 1474 1472 1476 1483 1492 1501 1505 1507 1510 1502 1474 1473 1472 1474 1475 1476 1477 1479 1480 1482 1485 1487 1489 1491 1493 1496 1498 1500 1501 1503 1505 1506 1507 1509 1510 1511 1513 1514 1516 1517
1474 1485 1494 1490 1486 1478 1478 1480 1484 1491 1500 1507 1508 1497 1475 1473 1473 1474 1475 1476 1477 1479 1481 1483 1485 1486 1488 1490 1493 1495 1497 1499 1500 1501 1503 1504 1505 1506 1507 1509 1511 1512 1513 1514
1470 1482 1489 1492 1488 1481 1480 1479 1482 1488 1498 1501 1497 1488 1478 1475 1474 1474 1474 1475 1477 1478 1480 1483 1484 1486 1488 1490 1492 1494 1496 1498 1499 1500 1501 1502 1502 1503 1505 1506 1508 1509 1511 1511
1470 1480 1479 1478 1475 1475 1476 1477 1478 1482 1484 1489 1485 1483 1477 1474 1473 1473 1473 1475 1477 1478 1480 1482 1483 1485 1487 1489 1492 1494 1496 1497 1498 1499 1500 1500 1501 1501 1502 1503 1505 1507 1508 1509
1472 1478 1478 1478 1475 1475 1477 1475 1475 1476 1477 1479 1479 1479 1472 1472 1472 1473 1474 1475 1476 1478 1479 1481 1482 1484 1487 1489 1491 1493 1494 1496 1497 1498 1498 1499 1500 1500 1501 1502 1503 1505 1505 1506
1475 1478 1483 1484 1478 1477 1483 1476 1474 1474 1473 1474 1477 1475 1471 1472 1471 1471 1473 1474 1475 1476 1478 1480 1482 1484 1487 1489 1491 1492 1493 1495 1496 1497 1497 1497 1498 1499 1499 1500 1501 1502 1503 1504
1475 1480 1486 1487 1484 1490 1480 1470 1469 1471 1472 1471 1471 1470 1469 1470 1471 1471 1472 1473 1474 1475 1477 1479 1481 1483 1485 1487 1489 1491 1492 1493 1494 1495 1495 1496 1496 1497 1497 1498 1498 1499 1500 1501
1470 1477 1486 1491 1490 1484 1476 1470 1470 1472 1473 1470 1470 1469 1469 1470 1471 1472 1472 1473 1473 1475 1476 1479 1480 1482 1484 1486 1488 1489 1490 1491 1493 1493 1494 1494 1494 1494 1495 1496 1496 1497 1497 1498
1471 1474 1483 1487 1486 1486 1475 1467 1465 1469 1474 1469 1468 1468 1469 1470 1474 1473 1471 1472 1473 1475 1476 1478 1480 1481 1483 1485 1486 1488 1489 1490 1491 1491 1491 1492 1492 1492 1493 1493 1494 1494 1495 1495
1476 1480 1483 1485 1485 1478 1469 1466 1465 1476 1474 1467 1466 1466 1467 1469 1470 1471 1471 1472 1473 1474 1476 1478 1479 1480 1482 1484 1485 1486 1487 1488 1489 1490 1490 1490 1490 1490 1491 1491 1492 1492 1492 1493
1477 1480 1483 1485 1485 1481 1467 1466 1469 1469 1465 1464 1464 1465 1466 1468 1469 1469 1470 1471 1472 1474 1476 1477 1478 1480 1481 1483 1483 1484 1485 1486 1487 1487 1488 1488 1488 1488 1489 1489 1489 1490 1490 1490
1474 1475 1476 1477 1477 1469 1466 1466 1465 1464 1464 1463 1463 1465 1466 1467 1468 1469 1470 1470 1471 1473 1475 1477 1478 1479 1481 1482 1482 1483 1484 1484 1485 1485 1485 1485 1486 1486 1486 1486 1486 1486 1487 1487
1472 1472 1473 1472 1469 1466 1465 1464 1463 1463 1463 1463 1463 1464 1465 1466 1467 1468 1469 1470 1471 1473 1474 1476 1477 1478 1479 1480 1480 1481 1482 1482 1482 1483 1483 1483 1483 1483 1482 1483 1483 1483 1484 1485
1472 1472 1472 1472 1468 1465 1464 1463 1463 1462 1462 1462 1462 1463 1464 1465 1466 1468 1469 1470 1471 1472 1473 1475 1476 1476 1478 1478 1478 1480 1480 1480 1480 1480 1481 1481 1480 1480 1479 1480 1480 1481 1481 1482
1470 1470 1471 1470 1466 1465 1464 1463 1462 1462 1461 1461 1461 1462 1464 1465 1465 1467 1468 1469 1471 1472 1473 1474 1475 1476 1476 1476 1477 1478 1478 1478 1478 1478 1478 1478 1478 1478 1477 1477 1477 1478 1478 1478